Theta_e
315 315 315 316 316 318 323 326 322 324 323 317 318 318 320 323 322 323 323 322 322 322 320 320 320 320 321 321 321 321 321 321 321 319 322 325 321 320 321 319 320 318 318 321 321 324 326 325 327 328 328 327 328 329 330 330 330 329 328 328 326 324 323 322 322 322 322 322 323 323 323 325 327 328 328 328 329 329 326 324 324 325 327 328 330 333 333 332 331 331 330 330 331 332 332 330 327
314 314 315 315 317 320 324 325 319 320 320 316 318 318 320 322 322 323 321 321 322 321 320 320 320 320 320 321 321 321 322 322 322 321 322 322 320 321 321 321 320 320 318 319 319 321 324 325 326 328 329 328 328 329 330 331 331 331 330 329 327 325 324 323 324 323 322 322 324 326 326 329 330 331 331 331 331 330 327 325 326 327 329 330 330 333 333 330 329 330 330 331 332 332 333 331 328
314 314 317 319 321 322 323 323 320 317 316 314 317 320 320 321 322 321 321 321 321 321 319 320 320 320 320 321 321 321 322 322 322 320 322 321 321 323 322 321 320 320 319 318 319 320 323 323 323 327 329 329 329 329 329 330 331 331 331 329 328 326 325 325 325 324 324 323 326 328 328 330 331 331 332 333 331 329 327 328 328 328 330 331 332 332 331 328 325 326 328 330 330 331 332 332 330
313 314 318 322 323 324 323 323 322 317 315 315 315 320 321 320 321 320 321 321 321 320 320 321 321 321 320 321 322 321 321 321 321 319 322 323 321 321 321 322 321 321 320 319 318 319 321 320 320 323 327 329 329 329 329 330 331 331 331 330 328 327 326 325 325 325 325 326 327 329 329 330 332 332 333 333 330 328 329 330 330 330 331 332 332 330 328 326 324 323 325 328 328 328 328 330 331
313 314 317 321 323 324 323 321 321 318 316 317 316 319 320 320 320 320 321 321 321 321 320 321 321 322 320 321 321 321 321 321 321 319 321 321 318 318 319 321 322 321 321 320 318 318 319 318 317 318 321 324 326 328 328 330 331 332 331 330 330 329 328 326 325 325 327 329 330 329 329 331 332 332 333 332 330 329 329 330 331 332 332 332 331 328 326 323 322 320 321 323 325 324 322 323 325
317 318 317 320 323 323 322 319 319 318 319 320 317 319 320 319 320 321 322 321 321 320 320 321 321 321 320 320 320 320 321 320 320 319 319 319 317 317 318 321 322 322 322 321 319 317 317 315 315 315 316 318 322 324 325 328 331 332 332 331 329 329 328 328 326 326 328 331 332 331 331 331 332 332 332 331 329 327 328 329 329 330 330 330 329 327 325 321 317 315 315 316 318 317 316 315 316
322 324 320 320 322 321 320 319 319 319 321 320 318 319 320 319 321 321 322 321 321 320 319 320 320 320 321 321 320 320 320 318 319 318 318 317 317 316 317 320 322 322 322 322 320 317 317 315 314 314 314 315 318 319 321 324 327 329 330 329 326 325 326 327 326 326 330 332 333 333 333 332 332 332 331 330 327 326 328 328 328 327 326 326 325 324 322 318 314 312 312 313 313 313 312 312 311
321 325 322 321 323 322 320 319 319 320 321 320 319 319 319 320 321 321 321 321 321 321 320 320 320 319 320 321 320 321 320 318 318 317 317 317 316 316 317 319 322 322 322 322 321 318 318 317 314 314 314 315 315 316 317 318 321 323 324 324 323 322 323 326 326 326 330 333 333 333 334 333 331 330 329 329 328 326 325 327 327 324 322 320 319 318 317 315 313 311 311 310 310 310 309 308 307
320 323 322 321 323 322 320 320 320 320 321 320 320 320 320 320 321 320 320 321 322 322 321 320 319 319 321 321 320 321 320 318 317 317 317 317 317 316 316 318 321 322 322 322 321 319 318 318 316 314 314 314 314 314 314 315 316 318 320 321 321 322 324 325 326 327 330 332 332 332 333 333 329 327 327 326 325 325 321 320 321 319 317 316 314 314 314 312 309 307 307 306 306 306 305 304 304
321 321 322 323 321 319 318 319 320 321 321 320 320 319 320 320 321 321 320 321 321 321 321 319 319 319 321 321 321 322 321 319 318 317 317 317 317 316 316 317 319 321 322 322 322 321 319 319 317 315 314 314 313 313 313 314 314 316 318 320 320 321 323 326 329 329 329 332 332 332 333 332 327 323 325 321 319 320 315 313 314 313 312 312 311 311 310 308 305 304 304 304 304 304 304 304 304
323 320 321 321 319 317 316 317 319 320 320 320 320 320 320 320 320 321 321 321 321 321 320 318 319 320 320 320 321 322 320 318 318 317 317 317 317 317 316 317 318 320 321 322 323 322 320 319 318 316 315 314 313 313 313 313 313 315 317 318 317 319 323 327 331 331 329 330 330 330 330 328 324 321 321 317 315 315 311 310 310 309 308 308 307 307 306 304 304 304 303 303 303 304 304 304 304
325 322 321 319 318 317 317 318 318 319 320 320 321 321 320 320 320 320 321 320 320 320 320 320 319 319 319 320 321 321 320 318 318 317 317 317 317 317 316 316 317 318 319 320 322 322 321 320 318 317 316 315 314 313 313 314 313 314 315 315 314 318 325 326 328 329 328 328 327 327 326 323 322 322 320 315 312 311 309 308 307 306 305 305 305 304 304 304 304 303 303 303 303 304 304 305 305
323 322 321 319 320 319 318 319 319 320 320 320 320 319 319 319 320 319 319 319 319 319 320 320 319 318 318 319 319 320 320 319 318 317 317 317 317 317 317 317 317 317 317 318 320 321 322 321 320 318 317 315 314 314 314 314 314 313 313 313 313 316 321 321 320 322 322 321 320 320 320 320 321 321 318 313 310 309 307 306 305 305 304 304 304 304 304 304 303 303 303 303 303 304 305 306 307
322 322 321 320 321 320 318 318 319 320 319 319 319 319 318 319 319 318 318 318 318 319 319 319 318 318 319 319 319 320 320 319 318 317 317 317 317 317 316 317 316 317 317 317 317 319 321 321 321 319 318 316 315 314 314 315 315 313 312 311 312 313 315 315 315 315 316 316 316 316 316 317 318 317 315 312 309 307 306 305 305 305 304 305 304 304 304 304 303 303 303 304 304 305 306 307 307
321 322 321 320 320 320 320 319 320 318 318 319 319 318 318 318 319 318 318 318 318 319 318 318 317 318 318 319 320 321 320 318 317 317 317 316 316 316 316 316 316 317 317 317 317 317 318 320 321 320 319 317 316 315 314 315 315 314 311 311 311 312 312 313 313 313 314 314 314 314 314 313 315 314 312 311 309 306 305 305 305 305 304 304 304 304 304 304 303 303 304 304 306 307 307 307 307
320 322 321 321 320 319 321 321 320 318 318 320 318 317 318 318 319 318 318 317 318 318 318 318 318 317 318 318 319 319 318 317 317 316 316 316 316 316 316 316 316 316 316 317 317 317 317 317 319 320 319 318 317 317 315 314 315 315 313 311 311 312 312 312 312 312 313 312 312 312 311 311 313 312 311 310 308 305 305 305 305 305 304 304 304 303 303 303 303 304 304 305 306 306 306 306 306
319 321 321 320 319 319 322 321 320 319 319 319 318 318 318 318 318 317 317 317 317 317 318 318 317 317 317 317 318 317 316 316 316 316 316 316 316 316 316 316 316 316 316 316 316 317 316 316 317 318 319 318 318 317 317 316 315 315 313 311 311 312 312 312 312 312 312 312 311 310 310 310 311 310 310 309 306 305 305 305 305 305 304 304 304 303 303 303 303 304 305 306 306 306 306 306 306
320 321 320 320 320 320 321 320 319 319 319 319 319 319 318 318 318 318 317 317 317 317 318 318 318 318 317 317 317 317 316 316 316 316 316 316 316 316 316 316 316 316 316 316 316 316 317 316 316 317 317 317 317 317 318 318 317 315 314 312 311 311 312 312 312 313 313 312 311 310 310 310 309 309 309 308 306 305 305 305 305 305 304 304 303 303 303 303 303 304 305 306 306 305 305 305 306
320 321 321 320 320 320 321 320 319 319 319 319 319 319 318 318 318 318 317 317 318 318 318 319 318 319 318 318 318 317 317 316 316 316 316 316 316 315 316 315 315 315 315 315 316 316 316 317 316 316 316 316 317 317 318 319 319 317 315 313 312 312 312 313 313 313 313 312 311 310 310 309 309 309 309 307 306 306 306 305 305 305 304 304 303 303 303 303 304 305 306 305 305 305 305 305 305
320 320 320 321 321 321 321 320 319 319 318 319 319 318 318 318 318 318 317 317 317 317 318 319 319 319 319 319 318 318 318 317 316 316 315 315 315 315 315 315 315 315 315 315 315 316 316 316 316 316 316 316 316 316 317 317 318 318 316 315 313 312 312 312 313 313 313 312 312 311 310 310 309 309 308 307 305 305 306 305 305 305 304 304 303 303 303 303 304 305 305 305 305 305 305 305 305
320 321 320 319 321 321 321 320 319 319 319 318 318 318 318 318 318 318 318 317 317 318 318 318 319 318 318 318 318 318 318 318 317 316 315 315 315 315 315 315 315 315 315 315 315 315 315 315 316 316 316 316 316 315 316 316 317 317 317 316 314 313 312 312 312 312 313 312 312 312 311 310 309 309 308 306 305 305 305 305 305 305 304 304 303 303 303 304 304 305 305 305 305 305 305 305 305
320 321 320 319 319 320 320 319 319 319 318 318 318 318 318 318 318 318 318 317 317 317 317 317 317 318 317 317 318 318 318 318 316 315 314 314 314 314 314 315 315 315 315 314 315 315 315 315 315 316 316 316 316 315 315 316 316 316 317 317 315 314 313 313 312 312 313 313 312 312 313 313 309 308 308 306 305 305 305 305 306 305 305 304 304 303 304 304 304 304 305 305 305 304 305 305 305
319 319 319 319 319 319 320 319 319 319 318 318 318 318 318 318 318 318 318 317 318 318 317 317 317 317 317 317 317 317 317 315 314 314 314 314 314 314 314 314 314 315 315 314 314 314 315 315 315 315 316 316 316 316 315 316 315 316 317 316 315 315 314 314 313 312 313 313 312 312 314 314 310 308 308 305 304 305 305 306 306 305 305 305 304 304 304 304 304 304 305 305 305 305 305 305 305
318 317 318 318 319 320 319 318 318 318 318 318 318 318 318 318 317 318 318 318 318 318 318 318 317 317 317 317 317 317 316 314 314 314 314 314 314 314 314 313 314 315 315 314 314 314 314 314 315 315 315 316 316 316 316 316 315 315 316 315 315 315 315 314 314 313 313 313 313 313 314 314 311 309 308 305 304 305 305 305 306 305 305 305 304 304 305 304 304 304 305 305 305 305 305 305 305
318 317 317 318 319 319 319 318 318 318 318 317 317 317 317 317 317 317 317 317 317 317 317 317 317 317 317 317 316 316 316 315 314 314 314 314 314 314 314 314 314 314 314 314 314 314 315 314 314 315 315 315 315 316 316 316 316 315 315 315 315 315 315 315 315 314 314 313 313 313 313 313 311 309 307 306 305 304 305 305 306 305 305 305 304 304 304 304 303 304 305 305 304 305 305 305 305
317 318 318 318 318 318 317 317 317 317 317 316 316 316 317 317 316 316 317 317 317 317 316 317 316 316 316 316 316 316 315 315 315 315 315 314 314 314 314 314 314 314 314 314 314 314 314 315 315 315 315 315 315 315 315 316 316 316 315 315 315 315 315 315 315 315 314 314 313 314 314 313 311 309 308 306 305 304 305 305 305 306 306 305 304 304 304 303 303 304 304 304 304 304 305 305 305
316 317 316 316 316 316 316 316 316 316 316 316 316 315 316 316 315 315 316 317 316 316 316 316 316 315 316 316 316 316 315 315 315 315 315 314 314 314 314 314 314 314 314 314 314 314 314 314 315 315 315 315 315 315 315 315 316 316 316 316 315 315 315 315 315 315 315 314 314 314 314 312 311 310 308 307 305 304 304 305 305 306 306 306 304 304 303 303 303 303 304 304 304 304 304 304 304
315 315 315 315 315 315 316 316 316 316 316 315 315 315 315 315 315 315 316 316 316 316 316 316 316 315 315 316 316 316 316 316 315 315 314 315 314 314 314 314 314 314 314 315 315 314 314 314 314 314 314 314 314 314 315 315 315 315 316 316 316 315 315 315 315 316 315 315 314 315 314 312 311 310 309 308 306 304 304 305 305 305 306 306 305 304 303 303 303 303 303 304 303 303 304 304 304
314 314 313 314 315 315 316 316 316 317 316 314 314 314 314 315 315 316 316 316 316 316 316 316 315 315 315 315 315 316 316 315 315 315 315 315 315 314 314 314 314 314 315 315 315 314 314 314 314 314 314 314 314 314 314 315 315 315 315 315 316 316 315 315 315 315 315 315 315 315 314 313 312 311 310 309 307 305 304 304 304 304 305 306 305 304 304 303 302 303 303 303 303 303 303 303 303
314 314 314 314 315 315 317 317 316 315 315 314 313 313 314 316 317 317 317 316 316 316 315 315 315 315 315 315 315 315 315 315 315 315 315 315 315 315 314 314 314 313 314 314 314 314 313 313 313 313 313 314 313 314 314 314 314 314 315 315 315 316 316 316 315 315 315 315 315 314 314 314 313 311 310 309 308 306 304 304 304 304 304 305 305 304 304 303 303 302 302 303 303 303 303 303 303
314 314 315 314 314 316 317 317 314 314 314 313 313 312 314 316 317 317 316 316 315 315 315 315 315 315 315 315 315 315 315 315 315 315 315 315 315 314 314 314 313 313 312 312 312 313 312 312 313 313 313 313 313 313 313 313 314 314 314 314 315 315 315 316 316 316 316 315 315 314 314 314 314 312 310 309 309 308 306 304 304 304 304 304 304 304 303 303 302 302 302 302 303 302 302 303 302
315 315 315 316 316 317 318 317 315 315 314 312 313 313 315 316 317 317 316 316 315 315 315 315 315 315 315 316 315 316 315 315 315 315 315 314 314 313 313 313 313 312 312 312 311 312 312 311 312 312 312 312 312 312 312 312 313 313 314 314 314 314 315 315 316 316 316 316 315 315 314 314 315 314 312 310 309 308 306 304 303 303 303 304 304 304 303 302 302 302 301 302 302 302 302 302 302
316 316 315 317 317 317 318 318 317 316 314 312 313 313 314 315 316 316 316 315 315 315 315 315 315 315 315 316 315 315 316 315 316 315 315 314 313 313 313 313 312 312 312 311 311 311 311 311 311 311 311 311 311 311 312 312 312 312 313 313 314 314 314 315 315 316 316 316 316 316 315 314 314 315 313 311 309 308 307 305 304 303 303 303 303 303 303 302 302 302 301 301 302 302 302 302 302
317 318 317 317 318 317 317 318 318 316 313 313 313 313 313 314 315 316 315 315 315 315 315 315 316 316 315 315 315 315 315 315 315 315 314 313 313 312 312 312 312 311 311 311 311 310 310 310 310 311 310 310 310 310 311 311 311 312 312 313 313 314 314 314 315 315 316 316 316 316 316 315 315 315 315 313 310 308 307 306 305 304 303 303 303 302 302 301 301 301 301 301 301 302 302 301 301
318 318 317 318 318 317 317 318 318 316 315 315 315 314 314 315 315 316 316 316 315 315 316 316 315 316 316 316 316 316 316 316 315 315 314 312 311 310 310 310 311 311 311 311 311 311 310 310 310 310 310 310 310 310 310 310 310 311 311 312 312 313 314 314 314 315 315 316 316 316 316 316 316 315 315 314 312 309 308 307 306 305 303 302 302 302 302 301 301 301 301 301 301 301 301 301 301
318 318 317 317 317 317 317 317 318 317 315 315 315 315 315 315 315 315 316 315 316 316 316 316 316 316 316 317 316 316 316 316 315 314 312 311 310 309 310 310 310 310 310 311 311 311 311 310 310 310 310 310 310 310 310 310 310 310 311 311 311 312 313 313 314 314 315 315 316 316 316 316 316 317 316 315 313 311 308 307 306 306 305 302 301 302 301 301 301 301 301 301 300 301 301 301 301
317 317 316 316 316 316 317 317 317 317 314 314 315 314 314 314 315 315 316 316 316 317 316 316 317 317 317 317 316 316 316 315 314 312 311 310 309 310 310 310 310 310 310 310 311 311 311 310 310 310 310 310 309 309 309 309 309 310 310 310 311 311 311 312 312 313 313 314 315 315 316 316 316 317 317 317 316 313 310 307 306 305 305 303 302 301 301 301 301 301 300 300 300 300 300 301 300
316 316 315 316 316 316 316 317 317 315 313 314 314 314 314 314 315 316 316 316 316 317 317 317 317 318 318 317 316 315 315 313 312 311 310 309 310 310 311 310 310 310 310 311 311 311 311 310 310 310 310 310 309 309 308 308 308 308 309 309 310 310 310 311 311 312 312 313 314 315 315 316 316 316 316 317 317 315 313 310 307 305 305 304 303 301 301 301 301 300 300 300 300 300 300 300 300
315 315 315 316 316 316 317 316 316 313 312 314 314 314 314 314 315 316 317 317 317 317 318 318 318 317 316 315 314 314 313 312 311 310 309 309 310 311 311 311 311 310 310 311 311 311 311 310 310 310 310 310 310 309 309 308 308 308 308 308 309 309 309 310 310 311 311 312 313 313 314 315 316 316 317 317 317 317 315 313 310 307 305 304 304 302 301 300 300 300 300 300 299 299 299 300 300
315 315 315 316 316 317 317 316 315 314 314 314 314 313 314 316 316 317 318 318 318 318 318 317 317 316 315 314 313 312 311 311 310 308 308 309 310 311 311 311 311 311 311 311 311 311 311 310 310 310 310 310 309 309 309 309 308 308 308 308 308 308 308 308 309 309 309 310 310 311 311 312 313 314 315 316 317 317 317 316 314 311 307 304 304 303 301 301 300 300 300 300 299 299 299 299 300
316 316 316 316 317 317 316 316 315 315 315 314 314 315 318 319 319 318 318 318 318 317 316 316 315 314 313 312 311 311 310 309 308 307 307 308 309 310 310 310 310 310 311 311 311 311 311 310 310 310 309 309 309 309 309 308 308 308 307 307 307 307 307 307 307 308 308 308 308 309 309 309 310 311 312 313 314 315 316 316 316 315 312 307 304 303 302 301 301 300 300 299 299 299 299 299 300
316 317 317 317 317 317 316 316 315 315 316 314 314 318 320 319 319 320 319 319 318 316 314 313 313 313 312 310 310 309 309 307 306 305 305 306 307 308 309 310 311 311 310 310 310 310 311 310 310 310 310 309 309 308 308 308 307 307 306 306 306 306 306 307 307 307 307 307 307 307 308 308 308 309 309 310 311 313 314 315 316 316 315 311 306 303 302 302 301 300 300 299 299 299 299 299 299
317 317 317 316 316 316 316 316 315 316 317 316 314 317 320 319 319 320 318 319 318 314 312 312 312 311 310 309 309 308 307 306 305 305 305 305 306 307 308 309 310 310 309 308 308 309 310 311 310 310 310 309 309 309 308 307 307 306 305 305 305 305 305 306 306 306 306 306 306 306 306 307 307 307 307 308 308 309 311 313 314 315 315 314 310 305 302 301 301 301 300 300 299 299 298 298 299
317 316 315 315 315 315 316 315 315 315 316 316 315 316 318 319 319 319 318 319 318 314 312 312 311 310 309 308 307 306 306 304 304 304 304 305 305 306 306 307 308 308 307 307 308 309 310 310 310 309 309 309 309 309 308 308 307 305 305 304 304 304 304 305 305 305 305 305 305 305 305 305 306 306 306 306 306 307 308 309 311 313 314 314 313 309 304 301 301 300 300 299 299 298 298 298 298
316 313 313 314 313 314 314 314 314 315 315 317 316 316 318 319 319 319 318 318 317 314 312 311 310 310 309 307 307 305 304 303 303 303 302 302 303 303 304 305 306 307 307 307 308 309 309 310 309 309 309 308 308 308 308 308 307 307 305 304 304 304 304 304 304 304 304 304 304 304 304 304 304 305 305 305 305 305 306 306 308 309 311 313 313 312 308 303 300 300 300 299 299 298 298 298 298
314 312 313 313 313 313 313 313 314 314 315 318 318 317 319 320 318 318 318 316 316 314 311 311 310 309 308 307 306 305 304 302 301 301 301 301 301 301 302 304 305 306 306 307 308 309 310 310 309 309 309 309 308 308 308 308 307 307 307 306 305 304 304 303 303 303 303 303 303 303 303 303 303 304 304 304 304 304 304 305 305 306 307 309 311 312 311 307 303 300 299 299 299 298 298 297 297
312 312 313 313 314 314 313 313 313 315 318 319 318 318 318 319 318 318 317 315 315 314 311 310 310 308 307 305 304 303 302 301 301 300 300 300 300 300 301 302 303 304 305 306 308 309 309 309 309 310 310 309 309 309 308 308 307 307 307 306 306 306 305 304 303 303 302 302 302 302 303 303 303 303 303 303 304 303 304 303 303 304 304 306 307 309 310 309 306 303 300 299 298 297 297 297 297
311 312 312 314 316 315 314 314 314 317 320 318 317 318 318 318 317 316 316 314 314 314 312 310 309 308 306 304 303 302 301 300 300 299 299 299 299 299 299 300 300 302 304 305 307 307 308 308 308 309 309 309 309 309 308 308 308 307 307 307 306 306 306 305 304 303 302 302 302 302 302 302 302 302 303 303 303 303 303 302 302 303 303 303 304 305 307 308 307 305 301 299 298 297 297 297 296
311 312 312 315 318 318 318 318 317 319 320 315 315 317 318 318 316 316 317 314 313 313 312 310 308 307 305 303 302 301 300 300 299 298 298 298 298 299 299 299 300 302 303 304 305 305 306 306 306 307 307 307 307 308 307 307 307 307 307 307 307 306 306 306 305 304 303 302 301 301 301 301 301 301 301 302 302 302 302 302 302 302 302 302 302 302 304 305 306 305 302 300 298 297 297 297 296
311 313 314 316 319 320 321 320 319 320 318 313 313 315 316 316 316 317 316 313 311 311 311 309 307 305 304 303 302 301 300 299 298 297 297 297 297 297 298 299 300 301 302 303 303 303 303 304 304 305 305 305 306 306 306 306 306 306 306 306 306 306 306 305 305 304 304 303 302 301 300 300 300 300 300 301 301 301 302 302 301 301 301 301 301 301 301 302 303 303 303 301 299 298 297 297 297
313 314 315 317 318 319 320 320 319 319 318 314 313 315 317 316 315 315 313 310 309 309 307 306 305 304 303 302 301 300 299 298 297 297 297 297 297 297 297 298 299 300 301 301 302 302 302 302 302 302 303 304 304 305 305 305 305 304 304 304 304 304 305 305 305 304 304 303 302 302 301 300 299 299 299 300 300 300 300 301 301 301 301 300 300 300 300 300 300 301 301 301 299 298 297 297 297
315 314 315 316 317 318 318 319 319 319 318 317 315 316 316 315 314 312 310 309 308 307 306 305 304 303 302 301 300 299 298 297 297 296 296 296 296 297 297 298 299 299 299 300 300 300 300 300 300 301 301 302 302 303 303 303 303 303 303 303 303 303 303 304 304 304 303 303 303 302 301 300 300 299 299 298 298 298 299 300 300 300 300 300 300 300 300 300 300 300 300 299 299 298 298 297 297
314 313 315 315 314 316 317 318 318 318 318 317 316 316 315 315 316 312 309 308 307 306 306 305 304 302 301 300 299 298 297 296 295 295 295 296 296 297 297 298 298 298 298 298 299 299 299 299 299 300 300 300 301 301 301 301 301 302 301 301 301 301 301 302 302 303 303 303 303 303 302 302 301 301 299 298 298 297 298 299 299 299 299 299 300 300 299 300 300 299 299 299 298 298 298 297 297
313 313 314 313 313 314 315 316 317 317 317 317 316 316 314 315 316 313 310 309 307 305 305 304 303 302 301 300 298 297 297 295 294 295 295 296 296 297 297 297 297 297 297 297 297 297 297 298 298 298 298 298 298 298 299 299 299 300 300 300 300 299 299 299 300 301 301 302 303 303 303 303 302 301 300 299 298 298 297 298 299 299 298 298 298 299 299 299 299 299 299 299 298 298 297 297 297
311 312 311 312 315 314 314 316 316 317 317 316 316 316 315 315 315 314 312 310 307 305 304 303 303 302 301 299 298 297 296 295 294 294 295 296 296 296 296 296 296 296 296 296 296 296 296 296 296 297 297 296 296 297 297 297 297 297 297 297 297 297 297 298 298 299 299 300 301 302 302 302 302 302 301 300 299 299 298 298 298 299 298 298 298 298 298 298 298 299 299 299 298 298 297 296 297
309 309 310 312 313 314 314 315 315 316 317 317 317 316 316 316 315 314 313 310 307 306 304 303 302 301 300 299 298 297 296 295 294 294 294 294 294 295 295 295 295 295 295 295 295 295 295 295 295 295 295 295 295 295 295 295 295 296 296 296 296 296 296 297 297 297 297 298 298 299 300 301 301 301 301 301 300 300 299 299 298 298 298 298 298 298 298 297 297 298 298 298 299 299 298 297 297
311 310 311 312 312 312 314 314 314 315 316 317 318 317 316 315 313 312 311 309 308 307 304 303 301 300 299 298 297 296 295 294 294 293 293 293 293 293 293 293 293 293 293 293 293 294 294 294 294 294 294 294 294 294 294 294 294 295 295 296 296 296 296 296 296 296 296 296 296 296 297 298 299 300 300 301 301 300 300 299 299 298 298 298 297 297 297 297 297 297 297 297 298 298 298 298 298
314 313 313 313 313 313 314 314 314 314 315 316 316 316 316 312 311 310 309 308 307 306 304 302 301 299 298 297 296 295 295 294 294 294 294 294 294 293 293 292 292 292 292 292 292 292 293 293 293 293 293 294 293 293 293 293 293 293 293 294 294 295 295 295 295 296 295 295 295 295 295 295 296 297 298 299 300 300 300 300 299 299 298 298 297 297 297 297 297 297 297 297 297 297 297 298 298
Wind_Speed
9 9 7 6 6 7 6 5 5 3 3 5 2 2 3 5 3 2 3 4 2 5 8 7 6 6 7 7 8 10 11 9 7 7 5 4 6 7 5 3 4 6 9 16 16 17 20 20 20 20 19 19 19 19 18 17 16 15 14 14 14 13 13 12 11 11 11 11 10 9 7 7 6 6 6 7 7 8 8 7 6 4 3 3 3 3 3 4 5 5 5 5 5 4 4 4 4
7 7 6 5 4 5 4 3 5 2 3 4 1 2 4 3 1 2 6 7 5 5 8 7 6 7 8 9 10 11 8 5 7 9 8 11 12 10 8 5 6 7 8 14 17 17 20 20 21 20 20 20 19 19 18 18 17 16 16 16 15 14 14 13 12 12 12 11 10 8 7 6 7 7 7 7 8 9 8 7 6 4 4 4 5 5 5 6 6 6 6 5 5 5 5 5 6
6 5 3 4 3 5 6 3 4 3 4 3 3 4 3 1 2 5 6 6 5 6 6 6 5 6 8 8 7 7 5 3 6 7 7 10 8 8 9 6 8 8 8 13 17 17 19 20 20 21 21 20 19 20 19 19 18 17 17 17 16 15 15 13 13 12 12 11 9 8 7 8 8 8 8 9 10 9 8 7 5 5 5 5 6 7 8 8 8 8 7 6 6 6 6 7 8
4 3 1 2 4 5 5 4 3 4 4 3 2 5 3 2 4 6 7 6 5 6 4 4 4 4 6 6 5 5 6 5 4 5 5 8 8 8 9 6 8 9 9 12 17 18 19 20 20 21 21 21 20 20 19 20 19 19 18 18 17 16 16 15 14 13 11 9 8 9 9 9 10 10 11 11 11 9 7 6 6 6 6 7 9 10 11 11 10 9 8 8 8 8 8 9 10
2 2 1 2 5 3 2 3 2 4 3 3 2 3 4 3 5 6 7 7 5 5 4 4 3 2 5 7 5 4 5 6 3 6 6 8 10 8 7 6 8 10 10 11 16 18 20 20 19 20 21 21 21 20 20 20 20 20 19 19 18 17 16 15 14 12 10 9 9 10 11 11 12 13 13 13 12 9 8 8 8 9 9 10 10 12 12 12 12 10 10 11 11 11 11 11 12
2 1 1 2 4 2 2 4 2 4 2 3 4 4 5 5 6 7 8 7 3 3 3 5 5 4 6 6 7 5 5 7 5 8 8 9 9 8 6 6 8 11 10 11 15 18 20 20 19 20 21 21 21 21 21 21 20 20 20 20 19 18 17 16 14 11 10 11 11 11 12 13 14 14 14 14 13 11 10 10 10 11 12 12 11 11 11 13 13 12 12 12 13 13 13 13 13
2 1 2 3 3 2 4 4 3 4 2 3 5 5 6 7 8 8 8 6 0 2 3 4 5 7 6 4 6 5 4 8 7 8 9 10 9 9 7 6 9 11 12 12 14 17 19 18 19 20 20 21 21 22 21 21 21 21 21 21 20 19 18 17 15 13 13 13 12 12 13 15 15 15 16 15 15 13 12 12 12 12 13 14 14 13 13 14 13 12 11 11 11 11 11 11 11
4 2 2 4 3 3 4 4 4 4 1 2 4 6 7 8 8 7 7 5 2 1 3 4 4 6 3 1 5 4 6 8 6 7 8 9 9 8 8 7 9 12 13 14 14 16 17 17 18 19 20 21 21 22 21 21 22 22 22 21 21 20 19 18 16 15 15 14 14 14 15 17 15 16 18 17 17 16 14 14 14 15 14 15 15 15 14 14 12 11 9 8 8 9 9 9 9
3 2 2 4 3 3 4 4 4 3 2 3 4 6 7 7 6 5 7 5 3 3 3 3 3 5 4 5 8 6 7 7 5 6 7 8 8 8 8 8 10 12 14 15 16 17 16 16 17 20 21 21 21 21 21 21 22 22 22 21 21 20 19 18 17 17 17 16 16 16 18 18 17 18 19 18 18 18 16 15 15 15 15 14 14 14 13 11 10 8 7 6 7 7 7 6 6
3 3 2 3 3 3 4 3 1 0 1 3 5 6 6 5 4 4 6 5 3 3 2 3 5 9 9 10 10 7 7 7 7 6 6 8 8 7 7 8 10 12 15 17 17 18 17 16 17 20 21 21 21 21 20 20 21 21 21 21 20 20 20 18 17 18 18 18 18 19 20 20 20 19 19 18 17 17 14 12 13 13 13 13 12 12 11 9 8 6 5 5 5 5 5 5 4
4 3 3 3 3 4 3 3 3 2 2 3 4 3 2 1 2 4 4 5 4 4 3 3 4 8 11 11 10 9 9 9 9 7 5 7 9 9 8 8 10 12 14 17 18 18 18 17 18 21 21 21 21 21 20 21 21 21 21 21 21 20 20 19 19 19 20 21 20 21 21 21 21 19 18 17 15 14 12 11 11 11 10 10 10 10 9 7 5 4 4 5 5 5 5 5 4
4 2 2 4 3 4 4 5 5 6 6 4 1 3 2 1 2 3 3 6 6 8 6 5 3 6 8 10 8 8 10 10 8 7 7 8 11 10 9 8 10 12 14 16 18 19 20 19 20 21 22 22 22 22 21 21 21 21 22 22 22 21 20 20 21 20 21 22 22 22 22 21 21 20 19 16 12 12 11 10 10 9 9 8 8 8 7 5 4 4 5 6 6 5 5 4 4
4 2 3 4 3 4 5 5 5 6 6 1 3 5 3 2 4 4 5 8 10 11 4 5 4 7 9 11 11 9 10 9 6 7 8 11 13 11 10 10 10 12 14 16 17 19 20 21 21 22 23 23 23 23 22 22 22 22 22 22 22 22 21 21 22 21 21 22 23 23 22 22 22 22 20 15 11 11 11 10 9 9 8 7 7 7 6 6 6 6 6 6 5 4 4 3 3
4 3 4 4 2 5 6 5 4 5 3 4 5 4 4 4 4 4 6 10 10 7 3 3 6 7 9 12 10 4 5 7 8 11 13 15 14 12 11 11 11 13 14 16 18 19 21 22 23 23 23 24 24 24 23 23 23 23 23 23 22 22 22 21 21 21 22 22 22 22 22 22 23 22 20 15 11 11 11 11 10 9 8 8 8 8 8 8 8 8 7 6 5 4 4 3 3
5 4 4 4 4 5 4 4 4 4 4 2 4 4 3 6 5 4 6 8 9 7 9 11 7 5 5 7 6 4 6 12 16 18 19 18 16 14 13 13 13 14 15 17 19 20 21 23 24 24 24 25 26 26 25 25 25 24 25 24 24 23 22 22 22 21 21 22 22 22 22 22 22 21 18 15 13 12 12 11 11 10 10 10 10 10 10 10 10 9 8 7 6 6 5 4 4
5 4 4 4 5 5 3 3 3 3 4 2 5 4 4 7 6 6 7 8 12 14 15 12 10 11 12 14 13 14 19 20 21 21 21 20 19 18 17 16 16 16 17 18 20 21 22 24 25 26 26 25 26 27 27 27 27 26 26 26 25 25 24 23 23 22 21 22 21 21 21 20 20 20 17 16 14 14 13 12 12 11 11 11 11 11 11 11 11 10 9 8 8 7 6 5 5
4 4 5 5 5 5 3 3 3 3 5 3 4 4 5 7 5 8 10 11 15 18 18 15 15 18 22 21 18 20 23 21 21 20 20 21 21 21 20 19 19 18 19 20 21 22 24 25 26 27 27 27 26 26 27 27 28 28 28 28 27 26 25 25 24 24 23 23 22 21 20 19 19 19 17 17 16 16 15 14 13 13 12 13 13 13 12 12 11 11 10 9 8 8 7 6 5
5 4 5 5 6 5 2 4 6 5 7 7 5 4 7 10 8 6 7 11 15 18 20 19 18 21 25 24 20 21 21 20 21 20 21 22 22 22 22 22 21 21 21 21 22 23 25 26 27 28 28 28 27 26 27 26 27 29 29 29 28 28 27 26 26 26 26 25 23 22 21 20 20 20 19 19 18 18 17 16 15 14 14 14 14 14 13 13 12 11 11 10 9 8 7 6 6
7 5 6 6 7 7 4 7 10 8 9 11 11 10 10 12 12 8 7 11 14 16 18 18 19 21 23 23 20 19 19 20 21 20 22 23 23 23 24 24 23 23 24 23 23 24 25 26 27 28 27 28 29 28 28 27 27 29 30 31 31 30 29 28 28 27 27 27 26 24 23 23 22 22 22 21 20 19 18 17 17 16 16 16 16 15 15 14 13 13 11 11 10 9 8 7 6
9 7 6 7 8 9 7 9 11 12 12 12 13 13 13 14 15 11 9 13 13 14 16 17 19 17 16 16 16 16 18 22 23 23 24 24 25 25 26 27 25 24 23 24 24 25 26 27 27 27 28 29 30 31 30 30 29 29 30 31 32 32 32 31 30 29 30 29 28 27 26 26 25 24 24 23 22 21 20 19 19 18 18 18 18 17 16 16 15 14 13 12 11 10 9 8 7
6 7 8 9 8 8 10 12 13 12 11 12 14 14 15 15 14 12 11 11 10 14 15 16 19 18 16 16 15 15 16 21 26 28 27 26 26 26 27 27 27 26 24 24 26 27 27 27 28 28 29 31 32 32 32 32 30 30 30 31 33 34 34 33 33 32 32 31 30 29 27 27 27 27 27 25 23 23 22 22 22 21 20 20 19 19 18 17 16 15 14 13 12 11 10 9 8
5 9 13 15 12 10 12 14 11 8 8 11 14 13 14 13 12 14 14 12 12 16 16 18 24 24 22 20 18 16 16 22 27 29 27 25 25 26 27 26 27 28 27 26 26 27 26 27 28 29 30 31 33 33 34 34 32 32 31 31 34 36 36 36 35 35 34 34 32 30 27 26 29 29 28 26 25 26 25 25 24 23 23 22 21 21 20 18 17 16 16 15 13 12 11 9 9
7 11 15 17 16 13 13 14 9 8 11 14 14 14 16 15 16 19 18 18 21 23 22 24 29 28 24 21 18 18 20 24 26 26 26 25 23 23 24 25 26 27 29 28 26 26 26 27 28 30 31 32 33 34 35 36 35 34 33 33 35 37 38 38 38 37 36 36 35 33 29 27 30 30 28 27 27 28 27 26 26 25 24 24 23 22 21 19 18 18 17 16 14 13 11 10 10
8 11 14 15 15 14 15 15 12 11 14 17 16 16 18 18 18 21 22 23 25 26 26 27 29 26 23 20 19 18 21 25 25 24 24 23 22 20 21 23 24 25 28 29 28 27 27 27 28 30 32 32 33 34 36 37 37 36 35 36 37 37 39 39 39 38 37 37 36 35 32 30 30 30 29 29 29 30 29 28 27 26 26 25 24 24 22 20 20 20 19 17 15 14 13 12 11
12 13 15 15 13 13 15 16 15 14 15 16 16 17 22 23 21 24 28 28 27 27 26 26 25 23 21 20 20 19 21 24 24 22 22 23 22 21 20 21 22 23 25 26 27 27 27 27 28 30 31 32 34 34 36 38 38 39 38 38 38 38 39 40 40 39 39 38 37 36 33 32 31 31 31 31 30 31 31 29 28 28 27 25 25 25 24 22 22 22 20 18 17 16 14 13 12
7 10 13 13 13 14 16 18 18 17 17 14 13 18 23 23 18 19 25 25 21 19 20 20 20 21 20 20 20 21 22 23 24 24 24 25 25 26 25 23 25 26 26 25 26 26 26 27 28 29 30 31 33 35 36 37 38 40 40 39 40 39 40 40 40 40 40 39 39 37 34 33 33 32 33 32 32 33 33 31 30 29 28 27 26 26 24 23 24 23 21 20 19 17 16 14 13
6 9 13 15 18 20 20 21 21 20 19 17 14 16 22 20 11 12 18 16 12 12 14 15 17 20 22 21 21 21 22 25 28 30 29 28 29 31 31 29 29 29 28 28 27 26 25 27 27 28 28 30 33 35 36 37 38 40 40 40 40 41 40 40 41 41 41 41 40 39 35 33 34 34 34 34 33 34 34 33 32 31 29 28 27 27 26 25 25 24 23 22 20 19 17 16 14
10 12 14 18 21 21 21 22 22 19 13 12 13 14 20 18 10 16 24 20 16 16 16 16 17 21 23 22 22 22 22 25 27 29 31 31 30 31 31 31 29 28 27 28 28 28 28 28 27 27 27 28 31 33 35 36 38 39 40 40 40 41 41 41 42 42 43 42 42 40 36 35 36 36 36 35 35 35 35 35 34 32 30 29 28 28 27 27 26 25 24 23 22 21 19 17 16
10 10 12 16 16 17 21 20 17 14 7 4 6 10 13 13 13 22 26 20 16 16 18 19 20 22 23 22 22 22 23 23 23 24 26 28 26 27 29 27 26 26 26 26 26 28 31 30 29 28 28 28 29 31 33 36 37 38 40 40 41 41 41 42 42 43 44 43 43 42 38 36 37 38 38 37 36 36 37 36 35 33 31 30 30 30 29 28 28 27 26 25 24 22 21 19 17
9 10 9 11 12 11 13 11 6 6 6 7 5 7 7 10 15 18 16 12 11 14 20 24 25 25 24 23 22 23 24 23 24 23 21 21 20 24 27 23 19 22 24 24 24 25 28 30 31 30 30 30 30 30 32 34 36 38 39 40 41 41 41 42 43 43 44 44 44 43 40 39 39 39 40 39 38 37 37 37 36 34 33 32 31 31 30 29 29 28 27 26 26 24 22 20 19
8 10 6 6 8 6 5 5 7 4 5 10 8 7 7 11 16 15 11 9 10 14 23 28 28 27 25 23 22 24 24 22 22 20 18 19 18 19 22 19 15 16 19 21 21 20 21 25 29 30 31 31 31 31 31 32 34 36 39 39 41 42 42 42 43 44 44 45 44 43 42 41 40 40 41 41 39 38 38 38 37 36 35 34 32 32 31 30 30 29 29 28 27 26 24 22 21
8 8 6 6 7 7 7 5 9 7 4 11 10 6 7 9 12 15 14 14 15 18 25 29 28 27 26 24 21 21 22 20 18 16 15 16 15 15 18 18 16 15 15 16 17 17 16 19 23 25 28 29 31 32 31 31 33 35 38 39 41 42 42 43 43 44 44 45 45 45 44 43 42 41 42 43 41 39 39 39 38 38 37 35 33 33 32 32 32 31 30 30 29 27 26 24 23
7 7 7 8 8 9 8 5 6 6 3 10 12 7 9 8 12 20 22 22 22 22 27 30 28 27 27 23 20 20 20 18 15 13 13 13 14 15 15 15 15 15 14 13 14 15 14 15 18 19 21 24 26 29 31 31 33 35 37 39 41 43 43 43 44 44 45 45 46 46 46 44 43 42 42 43 42 40 40 39 39 39 38 37 35 35 34 34 34 33 32 31 30 29 28 26 25
6 7 8 9 10 10 8 8 6 3 5 8 11 10 12 12 14 21 24 23 21 23 27 28 26 25 25 22 20 19 17 14 11 10 12 12 13 13 12 12 13 13 13 11 10 11 11 12 15 16 17 19 21 24 27 29 31 33 35 38 40 42 43 44 44 45 46 46 47 47 47 46 44 43 43 43 43 42 41 40 40 40 39 38 38 37 36 36 35 34 32 32 31 31 30 27 26
10 9 8 9 11 11 12 11 7 4 9 11 11 12 15 15 15 17 22 24 23 25 27 25 23 24 25 21 16 12 11 10 9 10 12 13 12 10 9 8 9 9 10 10 9 8 9 9 12 15 14 15 17 20 22 25 27 29 32 35 38 41 42 43 44 45 46 47 47 48 48 47 46 45 44 44 43 43 43 42 41 41 40 39 40 39 37 38 37 35 34 33 32 32 31 29 28
15 13 10 12 12 12 14 14 12 12 12 11 12 14 15 15 14 15 20 25 26 28 26 22 22 23 21 14 9 7 8 9 10 12 13 13 13 12 10 8 6 4 3 5 6 6 7 7 9 11 11 12 14 17 19 21 23 25 28 31 34 37 40 42 43 44 45 47 48 48 49 49 47 46 45 44 43 43 44 44 43 43 41 40 41 40 39 40 39 37 35 35 34 34 33 32 31
16 13 12 14 13 13 13 14 14 10 6 8 12 14 15 15 15 17 22 25 25 25 22 21 21 18 12 6 6 8 8 10 12 14 17 18 17 16 14 12 11 9 7 6 4 2 3 5 7 9 9 9 11 13 16 18 19 21 24 26 29 31 35 37 39 41 43 45 46 48 49 49 48 47 46 45 43 44 45 45 46 45 43 41 41 41 41 41 40 38 37 36 36 36 36 35 33
15 12 12 12 11 12 14 15 15 7 3 7 11 14 15 16 17 19 21 19 18 18 18 18 16 11 7 5 7 8 10 13 16 18 22 24 23 22 22 20 18 16 14 12 10 9 5 2 4 6 8 9 9 11 13 14 16 18 20 22 24 26 29 32 34 37 39 41 43 45 47 49 48 48 46 45 44 44 45 46 47 47 44 42 42 42 42 42 41 40 39 38 37 37 37 37 35
12 10 10 10 9 12 13 11 6 2 1 7 12 13 13 16 20 20 17 13 13 18 19 15 9 7 5 6 8 11 14 16 19 21 23 26 27 26 27 27 25 22 20 18 16 14 12 8 5 4 5 6 7 9 10 11 13 15 17 19 22 23 26 29 30 32 35 36 38 40 43 45 46 47 46 46 45 45 45 46 48 48 46 44 44 43 43 44 43 42 42 40 39 38 38 38 37
9 8 8 9 10 10 9 5 1 2 6 9 12 11 11 14 15 13 10 7 13 18 11 6 8 8 9 12 15 16 17 17 20 22 25 27 27 27 27 27 27 26 25 24 22 20 18 15 11 8 6 5 5 6 7 8 10 12 13 15 17 19 22 25 26 27 30 31 33 35 37 38 41 42 44 45 46 46 46 46 48 48 47 46 46 45 45 45 45 45 44 43 42 41 40 40 39
9 9 9 11 11 12 11 9 8 10 9 6 8 9 8 5 5 5 2 6 13 6 9 14 15 13 14 18 20 19 19 19 21 23 26 27 28 28 26 26 26 26 27 27 26 25 23 20 16 13 10 7 6 5 5 6 7 9 10 11 13 15 17 20 22 24 25 26 27 30 31 32 34 36 39 41 43 44 45 46 47 48 48 48 48 47 46 46 46 46 46 46 45 44 43 43 41
8 9 10 12 12 12 13 11 9 8 5 1 4 8 5 1 6 7 3 9 8 9 17 16 17 16 17 19 18 18 19 21 24 24 26 28 29 28 26 26 26 26 26 25 24 24 24 23 21 18 15 12 9 7 5 5 6 7 9 10 12 14 15 17 19 21 22 23 24 25 27 28 29 30 32 35 37 40 42 44 46 48 48 48 49 49 48 48 48 48 47 48 47 46 45 44 43
7 3 3 6 9 10 10 9 6 5 6 1 2 5 6 5 8 5 5 12 2 14 14 14 17 16 16 17 16 17 18 22 26 27 27 29 30 30 28 27 26 26 25 24 24 24 24 25 24 22 21 18 15 12 10 8 7 7 8 9 10 11 14 14 16 20 21 22 23 24 25 26 26 26 28 29 31 34 37 40 43 46 47 48 49 50 50 50 50 49 48 48 48 47 47 47 46
4 3 4 4 5 8 6 6 5 5 9 7 4 6 7 7 4 4 8 11 3 13 12 13 15 15 16 16 16 17 18 22 26 28 28 29 30 30 30 29 27 27 26 25 25 25 26 26 25 25 25 24 22 19 16 13 10 9 8 9 9 10 11 12 13 18 21 21 22 23 24 25 25 24 25 25 27 29 31 35 39 42 45 47 49 51 51 51 51 50 49 49 49 49 49 48 47
2 5 4 4 4 5 4 5 7 6 8 7 6 7 6 7 2 4 6 6 5 11 12 12 12 13 14 15 17 16 16 21 26 27 28 28 29 29 29 29 28 27 27 26 25 26 26 26 25 25 26 27 26 24 22 19 16 13 11 10 10 9 10 11 12 15 18 20 21 22 23 24 25 24 23 23 24 25 27 29 33 38 42 44 48 50 51 51 52 51 50 50 50 50 50 49 48
1 3 1 1 2 4 4 6 7 6 7 8 6 9 5 7 3 3 2 3 5 9 11 11 12 13 12 14 15 14 15 21 25 26 27 27 28 28 28 27 26 26 25 25 25 26 26 25 25 25 27 28 28 27 26 24 21 19 16 13 11 10 9 10 11 13 16 19 21 21 22 23 24 24 23 22 22 23 24 25 29 33 37 40 45 48 50 51 53 53 51 51 50 50 50 50 49
1 1 3 4 6 5 5 6 4 5 8 8 6 12 8 5 2 2 1 1 2 7 10 10 12 13 12 13 13 13 15 20 24 24 25 26 26 26 27 26 26 25 25 25 26 26 25 24 24 25 26 26 27 27 27 26 25 23 21 18 16 14 12 11 11 13 14 17 19 21 22 22 23 24 23 22 21 21 21 23 25 28 31 36 41 45 47 50 52 53 52 51 51 51 50 50 49
1 3 4 5 6 4 4 5 3 6 7 4 1 8 10 7 2 1 3 6 5 4 8 11 12 12 12 13 13 12 13 19 23 24 24 25 25 26 26 27 27 26 27 27 27 26 24 24 24 24 24 25 25 25 25 25 25 24 23 22 20 18 16 14 13 13 14 16 18 19 21 22 23 24 24 22 21 21 21 21 22 24 27 30 35 40 43 47 51 52 53 53 52 52 51 50 50
3 3 3 5 5 4 5 5 4 7 4 2 4 2 7 9 6 8 6 7 8 5 8 12 14 14 14 13 12 11 13 18 21 22 23 24 25 26 25 26 26 27 28 28 27 26 25 25 24 24 24 25 25 25 24 24 24 24 23 22 22 20 19 17 16 15 14 15 16 18 20 21 21 23 25 25 22 21 21 21 21 21 23 25 29 33 38 42 47 50 52 53 53 53 51 51 51
6 4 4 4 5 6 8 7 7 8 3 3 3 0 4 7 7 10 8 7 12 11 14 16 15 15 15 13 11 11 15 18 19 21 22 23 24 25 24 25 26 27 27 26 26 26 26 25 25 24 24 25 24 25 25 25 25 25 24 23 22 21 20 19 18 17 16 16 16 17 18 19 19 20 23 26 26 23 20 20 20 21 21 23 25 28 31 36 41 47 50 52 53 53 52 51 51
7 5 4 5 5 7 7 6 7 9 6 2 2 1 4 5 2 3 6 13 15 15 18 17 16 15 14 13 11 12 14 16 18 20 21 22 22 22 23 24 25 26 25 24 24 24 24 24 25 24 24 24 24 24 24 24 25 25 24 24 23 22 21 21 20 19 19 18 18 18 19 19 19 19 21 23 26 27 23 20 20 20 20 21 23 25 27 31 35 41 45 49 51 52 52 52 52
4 2 3 5 4 5 6 6 7 8 8 6 5 4 5 6 2 10 13 14 15 15 16 15 13 13 12 12 12 12 12 13 16 18 18 19 19 20 22 23 24 25 24 23 23 22 22 22 22 23 23 23 22 22 22 22 22 23 23 23 23 23 22 22 21 21 21 20 20 21 20 20 20 20 21 21 23 27 27 23 20 20 19 20 22 23 25 27 30 34 39 43 48 50 51 53 52
1 2 3 2 2 3 5 7 7 7 9 7 6 8 8 8 5 9 13 12 11 11 11 12 11 11 11 11 10 10 10 12 15 16 17 18 19 20 21 22 23 23 22 22 21 21 20 20 20 21 21 20 20 20 19 19 19 20 20 21 22 22 22 22 22 22 22 22 21 21 22 22 22 22 22 22 21 24 26 25 23 22 20 20 21 22 24 25 27 31 34 37 42 46 49 52 52
1 2 1 2 1 1 3 7 7 8 11 7 7 12 11 9 5 5 11 10 9 8 8 10 10 9 10 10 9 8 8 10 13 15 16 17 18 19 20 21 21 20 20 19 19 19 19 20 21 21 21 20 20 19 19 18 18 18 18 19 20 21 21 21 21 21 21 21 21 22 22 22 23 22 22 22 22 22 23 23 24 24 22 21 21 21 23 24 25 28 30 33 37 41 45 49 51
1 1 2 1 3 4 5 6 5 8 11 8 9 13 11 9 9 4 6 11 10 7 7 7 7 8 8 8 8 7 7 9 13 15 16 17 17 18 17 17 17 17 17 16 17 17 18 19 20 20 21 20 20 20 19 19 19 18 18 18 18 18 19 20 20 20 20 20 20 21 22 22 22 21 21 22 22 23 22 22 22 23 23 22 22 22 22 24 25 26 27 30 33 36 41 47 49
1 1 2 2 2 4 5 4 2 6 9 8 8 10 8 7 6 4 3 11 11 8 7 5 6 6 6 6 6 5 6 8 10 13 15 16 16 16 16 15 15 15 15 15 15 16 18 18 19 19 19 19 19 19 19 20 20 20 19 19 19 19 19 20 21 21 21 20 20 19 20 21 21 21 21 21 21 22 22 23 23 23 22 22 22 23 23 24 25 26 27 28 29 31 36 42 45
3 4 5 4 3 2 3 3 3 5 8 7 8 9 7 4 3 5 8 9 8 8 8 6 5 6 5 5 4 4 5 6 8 11 13 14 15 16 16 17 17 17 17 18 19 20 21 20 20 20 20 19 20 20 20 21 21 21 21 21 21 21 21 22 21 21 21 20 19 19 19 19 20 21 22 22 21 21 21 22 23 23 23 23 22 22 23 24 25 27 28 29 29 30 33 36 39
6 5 5 7 5 3 5 7 6 5 6 7 8 10 7 1 4 4 7 7 6 8 8 7 6 6 5 4 4 5 6 7 9 11 12 13 14 15 16 17 18 19 21 22 23 24 24 24 24 23 23 23 23 23 23 23 22 22 23 23 22 22 22 22 22 21 21 21 20 20 20 19 20 21 22 23 23 22 21 21 22 23 24 24 24 23 23 24 26 27 27 29 30 32 33 34 36
Wind_Direction
288 294 302 307 320 320 301 306 287 215 246 269 275 316 76 55 359 314 2 20 14 40 8 329 306 288 282 306 320 315 297 283 304 317 334 342 326 340 323 276 246 243 214 215 220 211 210 210 207 211 214 215 211 206 201 198 198 198 197 196 199 200 201 200 202 206 209 213 213 213 214 214 218 221 228 232 230 226 229 230 232 229 212 198 187 196 208 209 222 236 244 248 257 262 246 229 216
292 293 301 310 318 308 295 308 294 246 259 271 95 36 55 71 273 3 11 5 358 357 337 313 296 270 270 286 288 290 288 266 284 309 311 310 314 315 305 266 249 242 218 215 220 216 213 215 211 211 214 216 215 212 208 202 201 201 201 203 205 204 205 206 208 210 212 214 212 214 215 219 222 221 222 220 222 228 230 231 228 216 199 204 201 199 216 227 236 249 251 248 251 255 246 236 234
300 297 303 314 292 271 283 261 271 299 292 291 69 64 44 332 359 10 355 355 349 329 316 305 282 262 261 256 273 288 297 313 295 305 298 311 319 300 303 267 242 238 226 216 217 219 217 220 216 214 216 218 217 215 213 208 206 204 205 207 209 210 210 210 212 215 217 216 212 214 218 218 218 218 214 213 227 235 230 227 225 214 209 214 209 208 228 244 253 256 253 250 252 257 256 249 248
305 303 239 290 266 244 265 251 276 305 291 307 44 77 61 339 351 345 343 349 330 310 300 294 268 243 256 261 308 295 286 323 306 313 298 301 311 294 301 267 238 238 234 219 216 219 220 223 221 219 219 220 221 219 217 213 210 210 210 211 212 214 215 215 215 216 220 224 218 218 219 215 213 213 210 218 233 235 223 215 216 215 216 221 222 231 245 256 262 262 256 253 255 259 262 259 258
337 335 167 224 267 271 293 275 274 271 293 343 327 55 39 348 339 333 336 328 314 305 276 259 264 239 263 267 290 286 315 336 300 314 304 289 302 298 295 267 237 235 238 224 216 218 221 225 224 221 221 222 223 222 221 218 215 213 214 215 216 218 221 221 221 218 219 226 223 221 219 215 214 217 220 228 236 232 223 212 209 212 218 226 234 245 255 262 266 265 260 257 259 264 268 268 268
36 8 133 196 264 308 283 265 257 259 332 8 299 342 356 340 344 334 323 316 309 290 261 246 274 292 273 246 242 252 323 330 308 309 302 292 296 292 288 261 238 234 237 228 220 219 221 225 224 222 222 223 224 225 224 222 219 218 218 220 221 222 225 226 226 223 216 217 217 219 218 219 219 223 229 234 239 239 236 230 225 225 226 231 241 249 258 266 270 271 266 263 265 270 274 275 276
120 187 168 200 226 242 260 268 285 288 40 42 304 321 324 328 336 325 317 318 288 215 238 242 285 294 276 245 239 242 312 318 307 300 300 299 293 285 277 251 240 236 233 229 226 222 224 226 223 222 223 223 224 226 227 226 225 224 225 227 228 227 226 227 226 221 212 209 213 216 217 223 224 230 237 240 247 248 241 237 238 241 240 241 245 250 258 267 272 275 272 266 267 272 275 277 279
139 180 200 241 218 201 262 274 282 291 30 14 301 300 305 320 328 318 314 312 299 266 242 248 268 276 278 269 264 278 310 317 315 307 316 307 294 281 265 249 241 234 233 230 228 226 229 230 222 222 224 225 225 228 229 229 230 229 230 230 232 229 224 223 220 212 206 207 213 216 218 227 233 241 248 249 254 255 248 241 241 246 248 248 247 250 256 264 271 275 273 266 268 271 273 274 275
155 229 217 256 259 224 263 262 267 277 286 312 292 287 291 302 316 309 306 298 296 305 265 261 241 258 313 307 284 285 282 302 321 316 336 327 312 288 262 249 241 234 234 230 230 229 232 233 224 222 224 226 226 228 230 230 231 230 229 229 229 226 220 218 212 205 203 208 213 217 222 232 241 245 251 254 256 259 256 247 244 243 244 247 249 250 252 257 265 271 268 265 265 263 263 259 254
198 238 258 271 270 259 261 253 272 301 290 304 289 294 295 296 303 292 299 304 309 310 273 279 241 248 291 301 292 287 261 287 303 304 340 338 333 309 273 249 244 237 234 232 232 232 234 234 226 224 225 226 226 227 229 229 230 228 226 225 225 222 215 211 205 203 204 210 216 220 227 238 247 249 252 257 258 257 256 247 242 241 241 245 249 249 247 249 255 261 257 253 248 236 229 219 216
219 216 276 277 258 270 294 317 328 330 318 297 285 298 320 345 300 275 277 295 303 298 270 251 253 255 280 286 285 284 271 282 287 288 316 325 329 320 292 257 245 242 238 234 233 235 237 235 228 227 228 227 227 227 227 228 228 227 226 225 224 220 213 207 203 205 207 212 219 225 231 240 249 252 254 260 255 248 248 243 240 240 240 243 246 244 241 243 245 244 231 216 206 200 203 205 212
246 195 232 268 280 295 321 322 313 314 305 278 191 120 105 114 248 278 293 303 304 299 273 210 286 314 290 285 287 286 282 290 283 276 293 309 317 315 298 273 250 243 241 237 235 236 237 237 232 230 231 229 228 228 227 227 227 227 228 227 224 217 212 208 207 210 212 217 223 230 237 244 250 255 259 260 247 238 240 239 236 235 236 238 241 239 234 231 226 212 198 191 193 196 203 208 213
264 292 254 273 300 301 308 302 302 306 295 219 111 123 145 216 242 288 313 305 295 299 288 176 301 311 286 288 290 276 267 281 282 276 289 300 307 307 297 283 263 248 242 240 236 235 236 238 236 233 232 230 230 230 227 227 226 227 228 230 226 219 217 215 215 218 221 226 231 237 243 247 251 256 260 258 245 237 234 232 232 229 229 232 232 230 223 212 203 195 193 194 197 201 206 209 214
260 304 279 284 290 278 284 282 294 297 298 91 101 141 181 239 247 283 295 294 295 304 304 254 297 293 278 277 279 267 228 260 289 293 294 295 300 297 289 283 273 260 247 240 237 237 236 237 238 236 233 230 230 231 229 227 227 225 226 228 228 225 225 225 224 225 228 232 237 240 243 245 248 251 253 252 248 242 233 228 226 223 221 222 221 215 209 201 196 196 198 201 204 208 210 217 231
256 302 274 272 274 265 249 259 299 292 292 83 118 146 218 253 233 249 269 279 299 302 291 287 269 252 280 278 289 326 278 282 293 295 296 294 293 289 283 278 272 265 255 244 239 240 238 237 237 238 236 231 230 230 230 228 227 226 225 225 225 227 228 230 231 232 233 238 241 242 243 244 246 248 248 246 244 241 235 228 224 220 216 214 210 205 201 198 197 200 201 202 204 205 209 221 235
250 281 260 263 270 265 222 233 282 263 298 51 132 159 270 271 218 229 250 261 288 289 283 274 243 244 267 274 281 289 285 288 291 291 292 290 288 285 280 274 268 262 257 250 244 243 241 238 235 237 238 235 231 230 231 229 228 227 226 225 223 224 226 230 234 236 238 241 244 244 245 245 246 248 246 243 239 237 233 227 224 219 214 210 204 202 200 200 200 201 201 201 201 202 208 217 227
236 254 251 259 260 262 244 232 268 282 325 351 161 189 279 291 225 228 252 257 273 279 274 260 247 252 264 271 272 277 283 286 286 286 284 283 282 281 277 273 268 261 257 253 250 246 242 240 236 236 237 238 236 232 231 231 231 228 227 227 225 224 225 227 231 235 237 240 242 242 244 244 245 246 242 238 234 233 231 227 224 218 213 208 204 203 202 203 203 203 202 201 200 204 210 217 224
213 234 247 253 260 274 272 265 288 294 300 300 283 271 280 288 273 251 258 257 261 270 271 263 252 252 265 278 276 277 285 283 282 285 281 279 277 276 276 273 268 264 260 255 252 249 246 243 240 238 237 239 239 234 232 230 231 230 228 228 228 227 226 228 229 232 235 237 239 239 240 241 241 242 238 234 230 227 227 226 224 218 213 208 205 205 204 205 206 205 204 203 204 208 214 220 225
220 246 261 253 263 283 289 282 290 287 287 294 295 290 279 278 282 277 267 271 273 274 274 271 263 256 261 274 276 276 283 283 283 286 282 278 276 276 275 274 270 265 261 258 254 252 249 247 244 243 242 241 239 237 234 231 231 232 230 228 229 230 229 229 230 231 233 236 238 237 237 238 237 237 236 232 228 226 225 225 223 218 213 209 207 206 206 207 207 206 206 206 210 213 218 222 225
230 240 258 258 265 276 269 277 282 282 288 291 290 291 282 275 279 273 261 274 277 271 272 275 276 273 267 272 279 275 273 278 283 287 285 280 277 276 274 274 274 269 265 263 260 254 250 249 248 246 245 242 240 238 237 235 234 234 233 230 229 231 230 230 230 231 233 235 236 235 235 236 235 234 234 229 225 224 223 224 222 218 214 210 209 208 207 208 208 207 206 209 213 217 221 224 225
231 222 247 269 282 280 267 282 285 279 288 287 287 289 282 281 279 263 256 272 271 264 270 274 280 289 291 289 293 285 268 269 280 287 288 284 280 277 275 274 276 277 272 265 260 256 251 250 250 249 245 243 242 240 239 239 238 237 235 232 231 232 233 231 231 231 232 234 235 235 233 233 234 233 231 226 222 221 221 221 221 218 214 211 210 210 210 210 209 207 209 212 215 219 222 224 225
247 234 248 266 274 276 275 288 287 277 286 282 280 279 282 288 278 260 255 258 259 268 280 285 286 291 294 292 291 286 269 269 281 287 289 288 285 281 279 277 276 276 274 269 263 260 256 252 251 250 248 245 244 243 242 241 241 239 237 235 233 233 234 234 233 232 232 233 234 234 231 229 232 232 230 226 221 220 220 220 219 218 215 213 212 212 212 210 209 210 211 214 216 220 222 223 224
249 255 254 263 268 272 279 289 283 271 278 275 276 281 287 286 277 273 264 256 261 270 278 282 286 289 290 289 284 275 271 279 287 288 289 291 289 286 284 281 278 274 276 276 272 268 262 255 251 249 249 247 246 246 243 242 243 241 240 239 236 235 236 236 236 234 233 234 233 233 230 228 230 231 230 226 222 221 222 221 220 219 217 216 213 214 214 210 209 211 213 215 218 221 222 223 223
241 267 267 271 272 272 277 284 279 268 268 271 278 284 281 275 277 283 276 268 270 273 274 275 283 289 288 284 278 271 273 285 290 289 290 290 291 292 288 285 281 276 276 279 277 272 266 259 254 250 248 248 248 247 245 245 245 244 243 242 240 238 237 237 238 237 235 236 234 233 231 229 231 231 229 227 223 222 224 224 223 220 219 217 214 217 216 211 211 213 214 216 219 221 222 222 222
241 255 269 275 272 271 276 278 273 264 263 268 275 273 269 269 277 282 278 277 276 272 271 273 278 283 284 280 277 274 274 284 292 293 293 292 293 293 289 290 289 283 282 284 280 273 268 263 257 252 248 247 247 247 247 247 246 246 246 244 242 241 240 239 240 240 238 237 236 234 232 231 233 232 230 229 225 224 225 225 225 223 222 219 216 218 217 213 215 215 215 217 219 221 221 222 222
255 259 277 286 281 278 277 276 268 261 260 262 264 265 269 276 281 275 271 276 278 268 266 273 278 280 283 280 278 280 279 283 290 291 291 292 291 290 288 290 290 288 290 288 282 275 270 265 260 254 249 247 247 247 247 247 247 247 247 245 244 244 242 241 241 241 240 239 239 237 235 234 234 233 232 231 227 226 226 226 227 226 224 221 218 220 219 216 218 217 216 218 219 221 222 222 223
308 292 291 287 282 280 275 271 266 261 262 258 252 264 275 281 282 268 269 274 274 270 269 275 281 283 285 283 279 280 277 280 287 289 287 285 285 287 288 288 286 285 284 280 275 273 269 265 262 258 254 250 247 246 246 246 247 248 248 248 247 246 245 243 243 242 242 241 241 242 241 236 235 235 234 233 230 228 228 228 229 228 227 224 221 222 221 220 221 219 218 220 220 222 223 222 224
296 298 297 283 278 277 270 266 263 259 260 251 245 261 275 275 253 249 268 277 273 275 281 282 283 284 286 285 281 277 272 274 283 287 289 289 288 288 289 291 289 284 276 270 267 266 264 263 262 261 259 255 251 249 248 247 248 248 249 249 249 249 247 245 245 244 244 244 244 247 245 239 236 237 236 235 233 231 230 230 231 230 228 227 224 223 223 223 223 221 220 221 221 222 223 223 224
286 289 289 284 281 276 269 263 257 251 238 179 224 260 267 262 243 244 261 276 274 274 284 290 292 288 286 284 281 276 272 272 276 280 286 293 294 291 293 296 293 286 276 268 263 259 259 259 258 258 257 257 256 254 251 249 249 250 250 250 250 250 249 248 247 246 246 247 247 249 248 242 238 237 237 237 235 233 232 232 232 231 231 229 227 226 225 225 225 224 223 223 223 224 224 223 225
279 279 269 284 287 280 272 256 226 229 206 158 195 267 273 271 271 270 278 289 283 283 291 294 293 289 285 283 280 277 276 276 277 279 281 286 288 288 296 303 296 287 283 276 268 260 258 258 255 254 253 254 255 256 255 253 251 251 251 251 251 251 251 250 250 249 248 249 249 251 250 245 240 238 238 238 237 235 234 234 234 233 232 231 229 228 228 228 227 227 225 225 225 225 225 224 226
270 277 255 265 275 280 277 206 171 198 183 169 204 263 276 279 286 293 306 305 290 288 290 291 289 288 286 283 280 279 281 281 281 285 286 284 283 282 294 308 307 295 289 285 281 271 264 259 255 253 251 251 253 254 255 256 255 253 252 252 252 252 251 251 251 250 250 251 252 253 252 249 244 240 238 239 238 237 236 236 235 234 233 232 231 231 230 230 229 228 226 226 226 226 227 226 227
259 270 262 251 256 279 286 213 194 230 191 174 204 266 279 276 292 298 302 298 291 287 286 286 286 287 287 286 285 283 284 287 288 292 293 291 293 292 296 305 306 302 297 291 288 281 271 265 260 254 252 252 252 254 255 256 257 254 253 252 252 252 252 252 252 251 251 252 253 254 254 252 248 244 241 241 240 238 238 237 236 235 234 234 233 232 232 231 231 230 228 228 228 229 229 228 228
247 245 261 267 272 286 293 284 250 249 184 186 211 260 284 280 295 296 295 293 288 285 283 282 284 285 286 288 289 287 288 294 299 300 302 305 307 306 303 299 294 292 291 288 288 285 278 272 267 260 256 256 254 255 254 254 255 254 253 252 251 251 252 252 252 252 252 252 253 253 254 254 252 249 244 243 241 240 239 239 238 237 237 235 234 233 232 233 233 232 231 230 230 231 232 231 230
265 249 255 264 274 288 293 302 301 184 183 226 231 249 272 280 288 289 290 290 286 279 275 277 284 287 286 289 290 291 297 306 311 314 322 326 321 316 310 298 288 281 276 273 275 278 276 272 270 265 260 260 257 256 255 254 254 254 254 253 251 251 252 252 251 252 252 252 252 253 254 254 253 252 248 245 243 241 241 240 240 239 238 236 234 233 232 233 234 233 233 233 233 233 233 233 232
288 284 282 282 283 294 292 292 303 257 255 273 271 268 280 289 292 290 289 290 286 276 273 278 286 285 285 289 294 302 314 323 336 348 352 353 350 347 338 324 309 295 280 269 263 259 261 264 270 268 265 265 263 259 258 256 255 254 253 253 253 252 253 252 251 251 252 252 252 253 254 254 253 252 251 248 245 243 242 241 241 241 240 238 236 234 232 233 235 234 234 234 234 234 235 233 233
287 291 291 291 288 287 286 284 289 296 295 291 287 286 292 297 297 292 285 283 280 277 280 287 284 280 284 294 312 329 339 349 8 17 18 21 24 28 29 27 24 7 333 290 277 266 259 259 268 271 269 269 270 268 265 262 259 256 255 254 254 254 255 255 255 254 253 253 253 253 254 254 254 253 252 250 247 244 243 242 242 242 241 239 238 236 234 235 236 236 236 235 235 234 234 233 233
285 289 282 281 282 279 281 282 285 305 316 288 290 294 297 301 296 286 281 278 277 280 284 282 276 281 295 320 351 354 8 25 41 44 44 50 53 54 54 54 58 61 59 52 34 354 293 274 277 282 280 279 281 282 278 275 273 269 265 263 262 260 260 260 260 259 258 256 256 256 256 256 256 255 253 251 249 246 244 243 243 243 241 240 240 239 238 238 239 238 237 236 236 236 235 234 234
279 280 278 277 277 277 279 283 290 319 323 283 295 297 299 302 292 283 279 278 280 280 275 271 277 302 329 355 5 22 48 55 56 52 50 55 59 62 62 60 58 56 56 57 58 57 47 359 305 298 296 297 297 296 293 289 286 281 277 274 271 268 266 265 264 264 263 261 260 258 258 258 258 258 257 255 252 248 245 244 244 243 242 242 241 241 239 239 239 239 238 237 236 236 236 236 236
274 271 274 275 274 280 283 282 291 14 287 290 304 302 297 288 281 282 283 283 279 269 266 277 308 346 7 28 42 60 65 58 52 49 48 52 56 61 62 61 59 57 56 55 56 58 58 56 40 0 332 322 314 310 308 302 294 288 282 276 273 271 269 268 267 266 266 265 264 263 261 261 261 260 259 257 255 251 248 246 245 245 243 242 242 241 240 239 239 239 239 238 237 235 235 236 237
259 258 266 271 273 279 287 285 314 314 281 289 301 298 286 274 265 270 276 270 267 266 276 340 27 43 59 64 66 68 63 54 48 47 50 52 54 58 58 58 59 57 56 55 55 54 54 54 50 45 33 9 343 331 323 310 302 298 293 285 280 278 275 275 275 273 273 273 273 273 271 270 268 266 263 261 258 255 251 248 247 246 244 242 242 242 241 241 240 239 239 238 238 236 234 235 236
255 252 254 263 271 277 285 297 311 304 283 282 302 294 289 285 258 259 249 246 261 285 49 58 63 69 75 72 67 65 60 54 50 48 51 54 54 55 56 57 56 55 53 51 52 52 52 52 50 49 48 40 22 3 342 322 311 308 303 299 296 291 287 285 285 283 282 282 281 280 280 278 275 273 270 267 264 261 256 252 250 248 245 243 242 242 241 242 241 241 240 238 238 238 238 238 237
265 253 250 261 275 283 289 300 312 306 280 91 10 313 305 336 273 278 283 267 270 73 73 69 69 68 69 66 60 58 57 58 59 57 54 54 55 54 55 57 56 54 52 51 52 52 51 50 48 47 46 43 39 34 23 2 343 333 323 316 311 304 301 298 296 293 292 292 290 287 286 284 281 280 277 274 270 266 261 258 254 251 248 245 243 242 242 242 242 241 240 239 239 239 238 239 238
267 263 272 274 280 284 290 300 305 295 287 336 49 303 288 282 279 261 249 269 274 85 78 79 79 73 68 63 57 52 54 62 64 63 60 56 55 54 54 54 54 54 53 54 55 52 49 46 43 41 39 36 34 35 36 34 26 8 352 340 327 315 308 303 299 298 298 297 295 294 294 292 290 288 285 281 276 271 266 261 257 254 252 248 246 244 243 243 243 242 242 241 241 239 238 238 239
270 21 5 325 301 294 299 301 286 278 293 287 218 228 267 293 296 193 239 266 125 93 84 87 83 78 79 72 65 56 54 64 66 62 61 59 57 55 54 54 54 55 53 53 54 52 49 46 42 39 38 35 32 30 29 29 30 26 19 12 359 343 327 316 306 300 301 302 300 300 300 298 297 295 292 289 283 278 271 265 261 257 253 251 248 246 245 244 244 244 243 242 241 240 238 239 240
311 45 5 348 332 308 304 292 282 282 294 285 204 194 258 293 281 190 246 261 140 106 98 102 90 81 84 78 73 66 60 68 71 67 62 60 60 58 58 57 56 55 53 53 53 52 51 49 46 42 39 37 33 30 27 24 22 21 22 21 11 359 343 332 323 313 311 313 311 310 308 305 303 301 298 295 290 285 279 272 266 261 257 253 250 248 246 246 246 245 244 243 242 241 239 239 239
38 72 356 335 265 269 270 267 279 280 274 273 219 186 241 297 273 204 225 218 162 121 108 109 100 89 80 74 74 71 69 71 72 72 68 64 63 61 60 58 56 56 55 55 54 52 51 48 45 42 39 37 34 31 29 25 22 18 16 14 9 4 353 339 330 323 319 318 317 317 315 312 309 306 304 301 297 293 288 281 273 267 262 257 253 251 248 246 246 247 246 246 245 243 241 240 239
51 293 284 276 249 241 250 248 264 273 263 279 235 189 211 294 284 187 152 102 105 118 126 120 105 97 82 73 69 62 66 72 72 70 69 68 66 63 61 59 59 58 56 53 50 48 47 45 42 39 37 35 32 31 29 27 25 21 17 13 6 1 355 347 337 330 323 318 317 318 318 316 314 311 308 305 303 299 295 290 283 276 269 262 257 254 251 248 247 247 247 247 246 244 243 243 240
218 260 287 295 268 231 235 224 207 259 266 314 17 182 210 247 239 207 122 106 86 111 138 131 115 105 90 76 69 60 59 68 72 69 66 65 64 62 60 58 57 54 51 48 46 45 43 41 38 34 33 31 29 28 26 25 25 22 20 15 10 5 356 349 340 332 326 321 318 317 317 316 315 313 310 308 306 303 300 296 291 285 277 270 264 260 255 252 250 249 248 247 246 245 244 243 241
207 238 252 279 283 257 255 247 234 260 262 84 78 154 229 248 252 254 229 120 98 97 116 122 120 110 96 80 70 65 62 64 67 67 65 63 61 60 57 53 51 48 46 43 42 42 39 37 34 30 30 28 25 23 21 21 20 19 18 15 12 8 2 355 345 335 327 322 318 315 313 312 311 309 308 308 307 304 301 300 296 292 286 280 273 267 262 257 254 251 250 249 248 247 246 244 243
191 212 217 236 276 274 271 275 266 268 269 108 102 93 258 265 265 247 231 102 90 93 94 101 106 102 96 89 78 67 66 66 65 65 64 62 59 58 55 52 49 47 44 40 38 37 35 34 32 29 29 26 22 19 16 15 13 13 13 12 11 8 5 2 354 344 334 324 316 309 306 305 303 302 302 303 304 303 300 298 297 294 291 286 280 274 268 263 258 255 253 251 250 249 248 247 246
199 206 222 237 260 266 270 279 269 274 292 287 196 195 263 283 356 91 107 94 92 91 88 89 91 92 93 90 82 68 65 68 68 67 65 63 60 56 54 50 47 45 43 39 37 34 32 30 28 26 26 23 19 15 11 9 8 8 7 6 7 7 6 5 1 355 346 335 324 313 305 301 300 300 297 295 296 298 298 297 295 292 289 287 283 279 274 268 263 259 256 254 252 251 250 249 248
206 172 226 247 262 260 266 274 275 287 298 282 238 235 273 277 135 107 99 94 92 87 88 89 86 89 90 82 75 69 65 69 73 72 69 67 63 58 53 48 45 42 39 36 34 32 31 29 26 24 22 20 17 14 10 8 6 4 3 2 3 3 3 3 2 0 356 349 340 329 319 310 304 301 297 293 291 294 298 296 291 288 286 285 283 281 278 274 269 264 260 256 254 252 251 250 249
120 146 222 266 318 292 276 273 273 275 273 269 257 259 270 269 223 125 101 92 96 94 91 90 88 87 85 79 74 71 71 72 75 74 71 67 61 56 51 46 43 39 35 34 32 31 29 27 25 23 21 19 16 14 12 10 7 4 2 3 2 1 1 1 0 359 356 354 349 342 335 326 320 312 302 295 291 293 297 297 293 289 286 283 282 281 279 277 274 269 265 261 257 254 253 253 251
151 192 271 349 313 276 260 266 268 260 259 258 253 261 268 272 259 134 118 116 111 106 98 96 96 91 85 83 80 75 73 72 73 71 66 61 55 50 47 43 42 39 37 34 32 30 28 26 24 22 20 20 19 17 16 14 11 8 4 2 1 0 0 0 360 357 354 351 349 347 344 339 334 327 315 305 299 296 296 296 294 291 288 284 282 280 279 279 276 273 270 266 261 257 256 255 253
226 257 339 316 264 258 241 249 258 256 261 260 248 255 261 259 265 255 167 146 127 118 114 105 100 97 93 91 85 74 70 68 67 65 59 54 50 47 45 43 41 40 37 34 31 29 27 26 24 21 20 20 18 16 15 15 15 14 12 9 5 3 1 359 358 356 354 350 348 346 345 345 344 339 330 322 314 309 303 299 295 292 289 286 283 280 279 278 276 274 273 270 266 261 258 256 254
103 274 268 233 260 275 259 266 283 255 261 267 256 253 253 256 285 323 123 136 136 136 129 114 104 101 95 92 83 66 59 57 55 54 50 48 46 43 41 38 35 34 31 29 27 25 24 22 20 18 18 15 13 12 10 10 10 10 9 7 5 3 1 0 359 356 354 352 349 345 342 342 342 341 338 334 329 322 315 308 302 296 291 286 284 281 280 278 277 275 273 271 269 267 262 259 258
213 226 232 216 214 263 281 272 244 247 259 264 263 260 254 274 356 58 100 114 125 133 131 126 116 106 94 87 81 59 48 42 39 40 38 36 32 29 28 26 25 24 21 18 16 15 15 13 11 10 9 6 6 5 5 4 2 360 358 356 355 354 353 354 354 353 352 351 349 347 343 340 338 338 338 338 337 332 325 318 310 305 299 293 288 284 282 280 277 276 275 274 271 269 265 263 263
268 254 248 254 256 261 272 260 234 227 251 256 262 264 256 297 17 60 91 89 94 110 118 121 118 112 101 82 68 59 49 39 34 30 26 24 22 20 19 18 17 14 11 10 8 7 5 3 1 359 357 356 356 356 357 357 355 353 351 349 348 347 347 347 346 345 344 343 343 342 341 339 337 335 334 334 335 335 333 327 320 313 307 301 296 290 286 282 279 277 276 276 275 272 268 266 265